Weather History for Jackson, TN

Change the Weather History Date:

Saturday, March 8, 2014

  Actual Average Record
Temperature  
Mean Temperature 48 °F 49 °F  
Max Temperature 65 °F 60 °F 82 °F (1974)
Min Temperature 30 °F 37 °F 14 °F (1996)
Degree Days  
Heating Degree Days 17 17  
Month to date heating degree days 218 141  
Since 1 July heating degree days 3514 3025  
Cooling Degree Days 0 0  
Month to date cooling degree days 0 0  
Year to date cooling degree days 0 1  
Moisture  
Dew Point 38 °F    
Average Humidity 70    
Maximum Humidity 96    
Minimum Humidity 44    
Precipitation  
Precipitation 0.00 in 0.14 in 1.87 in (2012)
Month to date precipitation 3.14 1.16  
Year to date precipitation 11.30 9.40  
Snow  
Snow 0.00 in 0.00 in 1.00 in (2008)
Month to date snowfall 0.8 0.1  
Since 1 July snowfall 1.3 4.3  
Snow Depth 0.00 in    
Sea Level Pressure  
Sea Level Pressure 30.13 in    
Wind  
Wind Speed 7 mph (WNW)    
Max Wind Speed 17 mph    
Max Gust Speed 23 mph    
Visibility 8 miles    
Events      
T = Trace of Precipitation, MM = Missing Value Source: NWS Daily Summary

Daily Weather History Graph

Daily Weather History Graph

Search for Another Location

Airport:

Trip Planner

Search our weather history database for the weather conditions in past years. The results will help you decide how hot, cold, wet, or windy it might be!

Date:

Astronomy

Mar. 08, 2014 Rise Set
Actual Time 6:16 AM CST 5:57 PM CST
Civil Twilight 5:50 AM CST 6:22 PM CST
Nautical Twilight 5:21 AM CST 6:52 PM CST
Astronomical Twilight 4:51 AM CST 7:21 PM CST
Moon 11:09 AM CST (3/8) 12:42 AM CST (3/8)
Length of Visible Light 12h 32m
Length of Day
11h 41m
First Quarter, 52% of the Moon is Illuminated
Mar 8
First Quarter
Mar 16
Full
Mar 23
Last Quarter
Mar 30
New
Apr 7
First Quarter

Hourly Weather History & Observations

Time (CST) Temp. Windchill Dew Point Humidity Pressure Visibility Wind Dir Wind Speed Gust Speed Precip Events Conditions
12:53 AM 34.0 °F - 32.0 °F 92% 30.05 in 9.0 mi Calm Calm - N/A   Clear
1:53 AM 35.1 °F - 32.0 °F 89% 30.04 in 9.0 mi Calm Calm - N/A   Clear
2:53 AM 33.1 °F - 30.0 °F 89% 30.05 in 10.0 mi Calm Calm - N/A   Clear
3:53 AM 30.9 °F - 28.9 °F 92% 30.06 in 5.0 mi Calm Calm - N/A   Clear
4:53 AM 32.0 °F - 28.9 °F 88% 30.09 in 7.0 mi Calm Calm - N/A   Clear
5:53 AM 30.9 °F - 28.9 °F 92% 30.10 in 6.0 mi Calm Calm - N/A   Clear
6:53 AM 30.9 °F - 28.0 °F 89% 30.12 in 5.0 mi Calm Calm - N/A   Clear
7:53 AM 41.0 °F - 37.0 °F 86% 30.14 in 10.0 mi Calm Calm - N/A   Clear
8:53 AM 54.0 °F - 44.1 °F 69% 30.12 in 10.0 mi SSW 9.2 mph - N/A   Clear
9:53 AM 57.0 °F - 43.0 °F 59% 30.14 in 10.0 mi SW 11.5 mph - N/A   Clear
10:53 AM 60.1 °F - 44.1 °F 55% 30.14 in 10.0 mi WSW 15.0 mph - N/A   Clear
11:53 AM 62.1 °F - 45.0 °F 53% 30.13 in 10.0 mi WSW 9.2 mph - N/A   Partly Cloudy
12:53 PM 62.1 °F - 43.0 °F 50% 30.11 in 10.0 mi WNW 10.4 mph 19.6 mph N/A   Partly Cloudy
1:53 PM 64.0 °F - 44.1 °F 48% 30.09 in 10.0 mi SSW 10.4 mph - N/A   Mostly Cloudy
2:53 PM 64.0 °F - 43.0 °F 46% 30.09 in 10.0 mi West 9.2 mph - N/A   Partly Cloudy
3:53 PM 64.0 °F - 42.1 °F 45% 30.09 in 10.0 mi WSW 8.1 mph - N/A   Clear
4:53 PM 61.0 °F - 45.0 °F 56% 30.10 in 10.0 mi NNW 10.4 mph - N/A   Scattered Clouds
5:53 PM 55.9 °F - 45.0 °F 67% 30.14 in 10.0 mi NNW 13.8 mph - N/A   Clear
6:53 PM 53.1 °F - 44.1 °F 71% 30.15 in 10.0 mi North 12.7 mph 17.3 mph N/A   Partly Cloudy
7:53 PM 50.0 °F - 39.0 °F 66% 30.19 in 10.0 mi North 12.7 mph - N/A   Overcast
8:53 PM 48.0 °F - 39.0 °F 71% 30.21 in 8.0 mi North 9.2 mph - N/A   Overcast
9:53 PM 46.0 °F 41.0 °F 39.0 °F 76% 30.22 in 6.0 mi North 10.4 mph - N/A   Haze
10:53 PM 44.1 °F 39.0 °F 37.0 °F 76% 30.23 in 5.0 mi North 9.2 mph - N/A   Haze
11:53 PM 43.0 °F 37.2 °F 37.0 °F 80% 30.23 in 4.0 mi North 10.4 mph - N/A   Haze